Wind_Speed
13 11 9 8 6 4 4 5 5 5 8 15 15 17 17 18 20 20 34 31 35 38 38 41 43 48 46 40 32 37 39 41 46 42 41 38 42 39 39 40 40 42 44
14 14 12 10 8 6 5 5 6 7 8 10 14 13 15 21 22 23 27 32 31 33 34 36 36 34 36 35 37 37 43 45 51 52 48 48 47 44 46 47 47 48 49
12 11 11 11 11 10 9 8 7 8 9 10 12 13 14 15 18 23 29 32 32 35 38 39 39 37 39 41 42 45 49 51 53 55 54 48 49 51 51 52 50 48 48
12 11 10 11 14 14 14 13 12 12 12 12 13 14 16 19 22 24 24 26 27 29 32 35 39 40 40 42 46 48 50 52 53 56 57 55 54 54 55 53 52 49 51
16 14 12 11 13 12 13 14 15 16 16 18 19 19 20 21 23 24 27 29 30 32 32 33 36 38 39 40 45 46 49 53 54 56 60 60 59 56 56 52 56 53 56
15 15 14 13 14 16 17 17 18 19 20 20 19 20 24 26 27 29 31 33 34 37 38 39 40 41 41 41 44 46 48 52 54 56 58 61 60 59 58 60 59 59 62
11 14 17 19 20 19 20 20 21 22 24 26 28 29 31 32 34 33 34 37 38 41 42 43 43 44 45 46 46 49 50 52 54 56 61 61 62 62 62 63 65 65 65
15 17 19 21 23 24 26 28 29 29 28 29 30 31 32 35 37 40 42 43 43 46 46 45 45 46 45 46 47 53 56 57 59 61 63 65 69 70 68 68 67 68 68
12 14 15 17 18 19 21 22 24 27 30 33 35 37 38 40 41 42 43 43 45 46 48 49 49 50 50 54 55 57 55 58 64 65 66 69 76 76 72 67 65 59 62
15 15 16 17 18 19 21 22 22 24 25 27 30 33 35 38 40 42 46 49 48 48 48 50 52 55 55 51 51 53 52 59 67 60 64 69 71 74 75 63 62 66 74
17 18 19 21 22 23 24 24 25 26 25 26 28 31 34 37 39 42 44 47 49 51 53 54 57 59 57 51 49 53 54 59 63 60 68 68 70 76 78 70 70 76 76
17 18 19 20 21 21 23 25 26 28 29 30 31 32 33 34 35 38 42 46 50 53 56 57 56 57 58 54 52 60 62 67 67 71 75 68 77 71 75 70 69 69 65
16 17 18 18 19 20 21 23 24 25 27 28 29 30 32 34 36 37 38 38 40 46 51 55 52 55 53 56 58 61 56 65 66 58 47 48 55 51 48 45 41 39 33
15 15 16 16 17 18 20 21 21 22 22 24 26 27 29 31 32 34 35 38 38 40 42 43 45 50 52 56 55 49 45 47 41 37 37 40 37 34 37 29 25 25 25
17 17 17 17 17 17 17 18 19 21 21 22 23 23 23 23 25 26 26 24 23 26 31 32 30 31 31 26 24 19 18 15 17 19 20 18 18 20 20 21 22 23 25
18 18 18 18 17 17 18 18 19 20 20 20 21 20 18 18 18 17 17 18 17 16 13 15 18 18 15 13 11 10 9 9 10 12 14 17 17 19 20 22 24 26 26
16 16 17 17 18 18 18 18 19 19 18 18 18 18 18 18 17 17 17 17 17 17 16 14 13 13 14 17 17 18 18 18 19 20 20 21 21 22 22 23 23 22 22
16 16 16 15 15 15 15 16 17 18 18 18 19 19 20 20 20 20 20 20 21 21 21 23 22 20 20 20 21 22 23 23 23 22 22 22 22 22 21 21 21 22 22
14 14 14 14 14 14 15 16 16 17 17 19 19 20 20 21 21 22 22 23 23 23 24 24 24 26 24 23 23 21 21 20 20 19 19 20 20 20 20 20 21 21 22
11 11 12 12 14 15 17 18 18 20 21 21 22 22 23 22 23 23 24 24 24 24 24 23 22 21 21 20 19 19 19 19 19 19 19 20 20 21 21 21 21 21 20
12 14 16 17 18 20 21 22 23 24 24 24 25 24 24 24 23 23 23 23 22 22 21 21 20 20 20 20 21 21 21 21 22 22 22 22 22 22 22 22 21 21 20
17 19 20 22 23 24 25 25 26 26 26 26 25 24 23 23 22 21 20 20 20 20 20 21 21 21 22 22 22 22 23 23 23 23 23 23 23 23 22 21 21 20 19
21 22 24 24 25 26 26 26 26 26 26 25 24 23 22 21 20 20 20 20 21 21 21 22 22 23 23 23 24 24 24 24 24 24 23 23 23 22 21 21 20 19 17
25 25 26 26 26 26 26 26 25 25 24 23 21 21 20 20 21 21 22 22 22 23 23 23 23 24 25 25 25 25 25 25 25 24 24 23 23 22 21 20 19 17 16
25 25 25 25 25 25 24 23 23 22 21 21 21 22 22 23 24 24 24 25 25 25 26 26 26 27 26 26 26 26 26 25 25 24 23 23 22 21 20 19 17 16 15
25 25 24 24 23 22 21 20 20 20 20 22 23 24 25 26 26 26 26 25 25 25 25 25 24 23 23 23 22 22 22 22 22 22 22 21 21 20 19 18 17 16 15
Wind_Direction
218 212 200 200 194 174 174 186 179 197 215 217 227 223 231 229 232 236 242 254 252 249 256 250 250 239 257 260 243 247 250 257 273 268 265 265 269 272 275 275 274 274 274
210 221 219 215 214 211 203 204 212 213 211 220 232 249 242 228 237 235 237 239 250 247 252 255 252 252 256 257 253 254 259 264 267 273 268 269 270 270 274 276 275 274 274
223 232 236 233 232 230 228 231 231 235 242 247 250 255 261 257 248 246 247 250 257 252 248 251 251 249 252 258 261 261 262 265 266 268 270 271 268 268 270 270 268 269 271
211 213 226 239 238 242 245 241 241 247 252 255 258 261 265 267 267 266 262 259 259 259 255 254 253 251 252 255 259 260 260 260 262 265 266 265 266 269 269 271 273 274 275
230 233 236 241 250 251 257 260 261 263 260 260 263 266 266 267 270 273 274 276 275 273 272 270 270 270 269 267 264 264 263 264 264 266 267 269 270 272 273 275 275 276 276
236 247 251 257 256 258 260 263 267 271 268 265 266 273 279 273 273 272 270 268 267 267 269 271 271 271 271 270 269 268 268 270 270 270 272 273 275 275 275 276 275 274 276
257 260 268 273 275 270 268 270 271 272 272 269 265 264 260 266 269 264 261 259 261 267 270 271 270 270 271 270 269 269 268 268 269 271 273 274 275 275 276 275 276 277 277
280 276 273 272 271 268 267 267 269 270 269 267 264 264 263 262 263 262 263 264 264 267 267 268 270 271 271 274 275 272 272 270 268 268 270 273 272 272 274 277 279 279 281
272 273 275 275 278 280 278 276 274 272 271 272 272 272 271 270 266 264 263 264 265 265 266 265 262 261 261 266 268 273 277 280 277 275 273 270 271 272 273 272 273 274 273
266 269 272 276 280 282 281 280 279 279 278 279 280 280 279 279 278 276 274 271 272 272 271 268 267 264 260 259 260 266 270 271 270 272 269 269 271 272 272 273 268 269 268
273 272 271 271 272 275 278 282 285 286 285 282 280 278 278 279 281 280 280 280 279 275 273 273 273 272 273 271 271 264 267 269 267 268 272 267 269 275 276 274 268 273 272
275 275 275 275 276 277 279 281 283 284 287 288 289 289 287 286 284 282 280 279 278 276 276 276 274 273 274 275 275 272 274 271 271 273 269 270 273 276 271 274 274 277 277
290 289 288 288 289 290 290 292 293 293 293 292 292 292 294 295 297 298 298 295 290 283 277 274 275 275 274 274 272 272 275 272 279 280 280 279 280 277 277 277 277 273 269
287 289 291 293 292 291 290 292 293 293 294 295 296 297 299 299 301 306 309 309 310 307 298 289 284 277 275 279 281 278 279 278 279 272 269 269 265 270 271 266 262 261 263
293 295 297 297 298 297 297 297 297 299 302 304 304 306 308 308 308 308 310 317 325 329 322 304 287 278 280 284 286 284 279 266 257 259 260 256 257 263 265 265 266 268 271
296 298 300 303 304 305 306 307 309 311 313 313 314 316 318 323 328 331 332 332 334 337 345 334 322 314 311 309 307 298 292 280 278 279 278 276 277 276 279 282 282 286 298
294 295 297 299 301 304 309 313 316 316 319 322 324 324 325 325 326 326 326 326 323 321 320 316 313 308 303 301 299 297 296 293 294 293 291 294 301 307 309 312 310 305 300
290 292 295 298 302 306 309 313 315 318 320 319 319 320 320 319 319 319 319 317 317 316 314 311 308 304 301 298 296 294 293 295 299 306 312 315 313 310 303 298 297 297 295
293 297 301 304 306 308 309 311 312 312 312 312 312 312 311 312 312 311 309 307 306 305 304 302 302 301 303 306 309 311 313 314 309 304 301 296 297 297 297 297 297 299 299
298 299 300 303 305 306 307 308 308 308 308 308 308 308 307 306 305 305 305 305 304 304 305 306 308 311 312 311 308 306 306 304 302 302 301 300 300 300 302 302 302 303 304
303 304 305 306 306 306 307 308 308 308 308 307 306 307 307 307 306 306 305 305 304 304 304 304 304 303 302 301 302 302 302 302 301 302 302 303 304 304 304 303 303 303 302
305 306 306 306 305 305 305 305 305 306 305 306 306 307 307 306 305 304 303 301 300 299 299 299 299 300 300 301 301 301 300 299 300 300 301 301 300 299 298 298 299 300 301
302 302 302 302 303 304 304 305 305 304 303 303 304 306 306 305 304 303 302 300 300 300 300 301 302 302 302 302 302 302 302 301 300 299 299 298 299 299 299 299 299 300 302
302 303 303 303 304 303 302 301 300 300 300 302 303 304 304 303 303 302 302 302 302 303 303 302 301 300 300 300 301 300 299 299 299 299 299 298 298 298 298 296 295 296 298
301 301 301 302 301 300 299 298 297 298 299 301 303 303 303 303 303 302 302 302 302 301 301 300 299 299 300 300 299 299 299 300 300 299 298 297 296 295 294 294 294 294 294
300 299 299 298 297 296 295 294 294 296 298 300 300 300 300 300 300 300 301 301 301 301 301 300 301 301 300 299 300 300 299 299 298 297 296 295 295 294 293 291 291 292 294
Height
3031 3033 3033 3033 3034 3035 3036 3038 3038 3040 3043 3047 3050 3052 3055 3056 3059 3060 3066 3068 3070 3074 3077 3078 3080 3083 3085 3087 3088 3090 3092 3095 3092 3094 3098 3100 3098 3098 3100 3101 3100 3098 3097
3027 3030 3032 3033 3033 3034 3035 3036 3038 3039 3040 3043 3046 3048 3050 3052 3055 3057 3060 3062 3064 3066 3069 3071 3073 3078 3077 3079 3080 3081 3083 3086 3085 3084 3087 3087 3087 3089 3088 3087 3086 3084 3082
3025 3027 3030 3031 3033 3034 3034 3036 3037 3038 3040 3041 3043 3044 3046 3047 3050 3052 3054 3057 3057 3058 3061 3062 3064 3068 3067 3069 3070 3071 3074 3076 3075 3074 3073 3076 3076 3075 3074 3074 3071 3069 3068
3024 3024 3026 3028 3029 3030 3032 3033 3034 3035 3037 3038 3040 3041 3042 3043 3045 3046 3048 3049 3051 3052 3054 3054 3055 3056 3056 3059 3060 3061 3063 3064 3064 3061 3061 3063 3063 3063 3059 3058 3055 3057 3055
3020 3021 3023 3025 3026 3027 3029 3030 3031 3032 3034 3035 3036 3037 3038 3040 3041 3042 3043 3043 3043 3043 3044 3045 3046 3048 3049 3050 3050 3051 3052 3051 3051 3049 3046 3046 3047 3049 3046 3048 3041 3043 3040
3016 3018 3019 3021 3022 3024 3025 3026 3028 3028 3030 3030 3032 3032 3034 3035 3036 3037 3036 3036 3036 3036 3036 3037 3038 3038 3039 3040 3040 3041 3042 3039 3037 3036 3034 3031 3031 3031 3032 3028 3029 3027 3022
3011 3013 3014 3016 3017 3018 3019 3021 3021 3022 3023 3024 3025 3025 3025 3028 3029 3027 3027 3025 3026 3026 3026 3027 3028 3028 3029 3028 3028 3027 3026 3026 3024 3023 3018 3017 3014 3015 3015 3013 3011 3011 3010
3006 3007 3008 3009 3010 3011 3012 3013 3014 3014 3014 3015 3015 3015 3016 3016 3016 3016 3017 3016 3015 3016 3016 3016 3016 3016 3015 3014 3015 3014 3014 3014 3011 3008 3005 3002 2996 2994 2997 2998 2997 2995 2991
3002 3003 3003 3004 3005 3005 3005 3006 3006 3006 3006 3006 3005 3005 3005 3004 3003 3004 3005 3005 3003 3003 3004 3003 3000 2999 3000 3001 3000 2998 2998 2995 2993 2993 2991 2986 2978 2979 2983 2983 2981 2981 2976
3000 2999 2999 2999 2999 2999 2999 2999 2998 2998 2998 2997 2996 2995 2994 2993 2991 2991 2992 2992 2991 2989 2989 2985 2984 2980 2982 2986 2985 2984 2982 2977 2976 2974 2973 2969 2963 2959 2962 2965 2963 2961 2957
2994 2994 2994 2994 2994 2993 2993 2992 2991 2989 2989 2988 2987 2986 2985 2983 2981 2979 2978 2976 2975 2973 2972 2969 2967 2965 2968 2970 2969 2967 2966 2961 2956 2953 2950 2944 2945 2942 2943 2936 2940 2939 2936
2989 2989 2988 2988 2987 2986 2985 2985 2984 2982 2980 2979 2977 2975 2973 2971 2969 2967 2966 2964 2961 2958 2955 2952 2950 2948 2948 2951 2952 2951 2947 2944 2935 2935 2927 2926 2924 2922 2920 2922 2921 2917 2917
2983 2982 2982 2980 2979 2978 2977 2977 2975 2974 2972 2971 2968 2966 2964 2960 2956 2953 2950 2949 2947 2945 2942 2938 2936 2933 2931 2930 2931 2931 2928 2927 2923 2917 2910 2910 2910 2907 2908 2911 2907 2908 2907
2978 2977 2976 2975 2974 2972 2971 2970 2968 2966 2964 2962 2960 2957 2954 2951 2947 2942 2938 2935 2932 2930 2928 2926 2924 2921 2918 2914 2912 2911 2909 2910 2908 2907 2902 2898 2900 2899 2898 2899 2899 2900 2898
2969 2968 2967 2967 2966 2965 2963 2962 2959 2957 2955 2953 2950 2948 2946 2943 2939 2935 2930 2926 2923 2920 2919 2916 2913 2911 2908 2906 2903 2900 2899 2900 2898 2896 2895 2897 2895 2893 2893 2893 2893 2893 2892
2962 2961 2959 2958 2958 2957 2956 2954 2951 2949 2947 2945 2943 2941 2938 2934 2931 2929 2926 2923 2920 2916 2913 2912 2911 2908 2906 2905 2903 2900 2898 2898 2895 2894 2895 2895 2890 2889 2888 2886 2886 2884 2883
2957 2956 2955 2953 2952 2951 2949 2947 2945 2942 2940 2938 2936 2934 2932 2929 2926 2924 2922 2920 2917 2916 2913 2910 2908 2905 2903 2903 2902 2900 2897 2896 2894 2892 2890 2887 2885 2883 2880 2879 2879 2877 2874
2953 2952 2950 2949 2947 2945 2944 2942 2940 2938 2936 2934 2932 2929 2926 2924 2922 2919 2917 2915 2913 2910 2909 2907 2906 2903 2901 2899 2896 2895 2893 2890 2888 2886 2883 2882 2880 2877 2876 2875 2874 2870 2869
2949 2947 2946 2944 2943 2941 2940 2938 2936 2934 2933 2931 2929 2926 2924 2921 2919 2916 2914 2911 2909 2906 2903 2903 2899 2898 2896 2893 2890 2888 2886 2884 2883 2881 2879 2878 2875 2874 2872 2869 2867 2865 2863
2944 2943 2942 2940 2939 2938 2936 2934 2932 2930 2928 2926 2924 2921 2919 2916 2914 2911 2909 2906 2903 2901 2899 2896 2893 2890 2889 2887 2886 2883 2881 2880 2878 2875 2873 2871 2869 2868 2865 2863 2861 2859 2857
2940 2939 2938 2937 2935 2933 2930 2928 2926 2924 2922 2920 2917 2915 2912 2909 2907 2904 2902 2900 2898 2896 2893 2891 2889 2887 2885 2883 2881 2879 2877 2875 2873 2870 2868 2866 2864 2862 2860 2857 2855 2852 2851
2935 2933 2932 2930 2928 2926 2924 2922 2919 2917 2914 2913 2910 2908 2906 2903 2901 2899 2897 2895 2893 2891 2889 2887 2884 2882 2880 2878 2876 2873 2871 2869 2867 2865 2862 2860 2858 2856 2854 2852 2849 2847 2844
2930 2929 2927 2925 2922 2919 2917 2915 2912 2910 2908 2906 2904 2902 2900 2898 2896 2894 2892 2890 2888 2886 2883 2881 2878 2876 2873 2871 2869 2867 2864 2862 2860 2858 2856 2854 2852 2850 2848 2845 2843 2841 2838
2923 2921 2919 2917 2915 2912 2910 2908 2906 2904 2902 2900 2898 2896 2894 2893 2891 2889 2886 2884 2881 2879 2876 2874 2871 2869 2866 2864 2862 2860 2857 2855 2853 2851 2849 2847 2845 2843 2841 2839 2837 2835 2833
2916 2914 2912 2910 2908 2906 2904 2902 2900 2898 2896 2895 2893 2891 2889 2887 2884 2882 2880 2877 2874 2871 2869 2866 2864 2861 2859 2857 2855 2852 2850 2848 2846 2844 2842 2840 2839 2837 2835 2833 2832 2830 2829
2909 2907 2905 2903 2901 2900 2898 2896 2894 2892 2891 2889 2887 2885 2883 2880 2878 2875 2872 2869 2866 2864 2861 2859 2856 2854 2852 2849 2847 2845 2843 2841 2840 2838 2836 2834 2833 2831 2829 2828 2827 2825 2824